Camanche, IA

2:42 AM CDT on September 26, 2016 (GMT -0500)
Clinton Municipal

Weather History for KCWI - November, 2012

Change the Weather History Date:

Friday, November 23, 2012

  Actual Average Record
Temperature  
Mean Temperature 27 °F -  
Max Temperature 39 °F 44 °F 64 °F (1966)
Min Temperature 15 °F 28 °F 2 °F (1950)
Degree Days  
Heating Degree Days 38    
Moisture  
Dew Point 16 °F    
Average Humidity 61    
Maximum Humidity 86    
Minimum Humidity 44    
Precipitation  
Precipitation 0.00 in - - ()
Sea Level Pressure  
Sea Level Pressure 30.19 in    
Wind  
Wind Speed 21 mph (WNW)    
Max Wind Speed 37 mph    
Max Gust Speed 44 mph    
Visibility 10 miles    
Events      
Averages and records for this station are not official NWS values.
T = Trace of Precipitation, MM = Missing Value Source: NWS Daily Summary

Daily Weather History Graph

Daily Weather History Graph

Search for Another Location

Airport or City:

Trip Planner

Search our weather history database for the weather conditions in past years. The results will help you decide how hot, cold, wet, or windy it might be!

Date:

Astronomy

Nov. 23, 2012 Rise Set
Actual Time 7:00 AM CST 4:34 PM CST
Civil Twilight 6:30 AM CST 5:05 PM CST
Nautical Twilight 5:56 AM CST 5:39 PM CST
Astronomical Twilight 5:22 AM CST 6:12 PM CST
Moon 1:52 PM CST (11/23) 2:16 AM CST (11/23)
Length of Visible Light 10h 34m
Length of Day
9h 33m
Waxing Gibbous, 80% of the Moon is Illuminated
Nov 23
Waxing Gibbous
Nov 28
Full
Dec 6
Last Quarter
Dec 13
New
Dec 19
First Quarter

Hourly Weather History & Observations

Time (CST) Temp. Windchill Dew Point Humidity Pressure Visibility Wind Dir Wind Speed Gust Speed Precip Events Conditions
12:15 AM 39.2 °F 30.5 °F 28.4 °F 65% 30.02 in 10.0 mi WNW 16.1 mph 21.9 mph N/A   Scattered Clouds
12:35 AM 37.4 °F 29.3 °F 28.4 °F 70% 30.01 in 10.0 mi West 12.7 mph - N/A   Clear
12:55 AM 37.4 °F 28.9 °F 28.4 °F 70% 30.01 in 10.0 mi West 13.8 mph - N/A   Mostly Cloudy
1:15 AM 35.6 °F 26.6 °F 28.4 °F 75% 30.00 in 10.0 mi West 13.8 mph - N/A   Partly Cloudy
1:35 AM 37.4 °F 27.2 °F 28.4 °F 70% 30.00 in 10.0 mi West 19.6 mph 25.3 mph N/A   Clear
1:55 AM 37.4 °F 26.9 °F 26.6 °F 65% 30.01 in 10.0 mi West 20.7 mph 29.9 mph N/A   Clear
2:15 AM 37.4 °F 26.6 °F 26.6 °F 65% 30.01 in 10.0 mi West 21.9 mph 32.2 mph N/A   Clear
2:35 AM 35.6 °F 25.5 °F 26.6 °F 70% 30.03 in 10.0 mi WNW 17.3 mph - N/A   Scattered Clouds
2:55 AM 35.6 °F 24.0 °F 24.8 °F 65% 30.03 in 10.0 mi WNW 23.0 mph 35.7 mph N/A   Mostly Cloudy
3:15 AM 35.6 °F 23.4 °F 23.0 °F 60% 30.03 in 10.0 mi WNW 25.3 mph 32.2 mph N/A   Overcast
3:35 AM 33.8 °F 21.3 °F 21.2 °F 60% 30.03 in 10.0 mi West 24.2 mph 32.2 mph N/A   Overcast
3:55 AM 33.8 °F 20.5 °F 21.2 °F 60% 30.03 in 10.0 mi West 27.6 mph 34.5 mph N/A   Overcast
4:15 AM 33.8 °F 20.3 °F 21.2 °F 60% 30.03 in 10.0 mi West 28.8 mph 38.0 mph N/A   Overcast
4:35 AM 33.8 °F 21.0 °F 21.2 °F 60% 30.03 in 10.0 mi WNW 25.3 mph 36.8 mph N/A   Overcast
4:55 AM 33.8 °F 20.1 °F 21.2 °F 60% 30.04 in 10.0 mi WNW 29.9 mph 38.0 mph N/A   Overcast
5:15 AM 33.8 °F 20.3 °F 19.4 °F 56% 30.05 in 10.0 mi WNW 28.8 mph 40.3 mph N/A   Overcast
5:35 AM 30.2 °F 14.7 °F 17.6 °F 60% 30.06 in 10.0 mi WNW 32.2 mph 42.6 mph N/A   Overcast
5:55 AM 30.2 °F 15.7 °F 17.6 °F 60% 30.07 in 10.0 mi WNW 27.6 mph 34.5 mph N/A   Overcast
6:15 AM 30.2 °F 14.5 °F 17.6 °F 60% 30.07 in 10.0 mi WNW 33.4 mph 41.4 mph N/A   Overcast
6:35 AM 28.4 °F 12.3 °F 15.8 °F 59% 30.08 in 10.0 mi WNW 32.2 mph 41.4 mph N/A   Overcast
6:55 AM 28.4 °F 12.5 °F 15.8 °F 59% 30.10 in 10.0 mi WNW 31.1 mph 43.7 mph N/A   Overcast
7:15 AM 28.4 °F 12.3 °F 15.8 °F 59% 30.11 in 10.0 mi WNW 32.2 mph 40.3 mph N/A   Overcast
7:35 AM 28.4 °F 12.0 °F 15.8 °F 59% 30.12 in 10.0 mi NW 33.4 mph 39.1 mph N/A   Overcast
7:55 AM 28.4 °F 11.4 °F 15.8 °F 59% 30.12 in 10.0 mi WNW 36.8 mph 43.7 mph N/A   Overcast
8:15 AM 28.4 °F 11.8 °F 15.8 °F 59% 30.13 in 10.0 mi WNW 34.5 mph 42.6 mph N/A   Overcast
8:35 AM 26.6 °F 10.3 °F 14.0 °F 59% 30.14 in 10.0 mi NW 29.9 mph 39.1 mph N/A   Mostly Cloudy
8:55 AM 26.6 °F 12.0 °F 14.0 °F 59% 30.15 in 10.0 mi WNW 23.0 mph 35.7 mph N/A   Overcast
9:15 AM 28.4 °F 14.4 °F 14.0 °F 55% 30.16 in 10.0 mi WNW 23.0 mph 34.5 mph N/A   Mostly Cloudy
9:35 AM 28.4 °F 13.0 °F 12.2 °F 51% 30.17 in 10.0 mi WNW 28.8 mph 35.7 mph N/A   Scattered Clouds
9:55 AM 28.4 °F 13.3 °F 14.0 °F 55% 30.18 in 10.0 mi NW 27.6 mph 36.8 mph N/A   Clear
10:15 AM 28.4 °F 14.4 °F 12.2 °F 51% 30.19 in 10.0 mi WNW 23.0 mph 32.2 mph N/A   Partly Cloudy
10:35 AM 28.4 °F 14.1 °F 14.0 °F 55% 30.20 in 10.0 mi NW 24.2 mph 32.2 mph N/A   Partly Cloudy
10:55 AM 28.4 °F 13.3 °F 12.2 °F 51% 30.22 in 10.0 mi NW 27.6 mph 35.7 mph N/A   Partly Cloudy
11:15 AM 28.4 °F 12.7 °F 12.2 °F 51% 30.21 in 10.0 mi WNW 29.9 mph 34.5 mph N/A   Scattered Clouds
11:35 AM 28.4 °F 14.1 °F 12.2 °F 51% 30.22 in 10.0 mi NW 24.2 mph 34.5 mph N/A   Scattered Clouds
11:55 AM 28.4 °F 13.8 °F 14.0 °F 55% 30.23 in 10.0 mi NW 25.3 mph 34.5 mph N/A   Mostly Cloudy
12:15 PM 28.4 °F 14.1 °F 12.2 °F 51% 30.23 in 10.0 mi WNW 24.2 mph 29.9 mph N/A   Mostly Cloudy
12:35 PM 30.2 °F 16.8 °F 12.2 °F 47% 30.22 in 10.0 mi WNW 23.0 mph 33.4 mph N/A   Scattered Clouds
12:55 PM 30.2 °F 15.9 °F 12.2 °F 47% 30.23 in 10.0 mi WNW 26.5 mph 34.5 mph N/A   Clear
1:15 PM 30.2 °F 16.5 °F 12.2 °F 47% 30.24 in 10.0 mi WNW 24.2 mph 32.2 mph N/A   Clear
1:35 PM 30.2 °F 16.8 °F 12.2 °F 47% 30.24 in 10.0 mi WNW 23.0 mph 29.9 mph N/A   Clear
1:55 PM 30.2 °F 16.5 °F 10.4 °F 44% 30.25 in 10.0 mi WNW 24.2 mph 31.1 mph N/A   Clear
2:15 PM 30.2 °F 16.2 °F 12.2 °F 47% 30.24 in 10.0 mi WNW 25.3 mph 33.4 mph N/A   Clear
2:35 PM 30.2 °F 16.2 °F 12.2 °F 47% 30.25 in 10.0 mi NW 25.3 mph 31.1 mph N/A   Clear
2:55 PM 30.2 °F 17.1 °F 12.2 °F 47% 30.24 in 10.0 mi WNW 21.9 mph 28.8 mph N/A   Clear
3:15 PM 30.2 °F 16.5 °F 12.2 °F 47% 30.25 in 10.0 mi NW 24.2 mph - N/A   Clear
3:35 PM 30.2 °F 16.8 °F 12.2 °F 47% 30.26 in 10.0 mi NW 23.0 mph 26.5 mph N/A   Clear
3:55 PM 28.4 °F 15.4 °F 12.2 °F 51% 30.27 in 10.0 mi WNW 19.6 mph 28.8 mph N/A   Clear
4:15 PM 28.4 °F 16.2 °F 12.2 °F 51% 30.28 in 10.0 mi WNW 17.3 mph 24.2 mph N/A   Clear
4:35 PM 26.6 °F 14.3 °F 14.0 °F 59% 30.28 in 10.0 mi WNW 16.1 mph - N/A   Clear
4:55 PM 26.6 °F 14.7 °F 12.2 °F 55% 30.28 in 10.0 mi WNW 15.0 mph - N/A   Clear
5:15 PM 26.6 °F 14.3 °F 14.0 °F 59% 30.29 in 10.0 mi WNW 16.1 mph 23.0 mph N/A   Clear
5:35 PM 24.8 °F 11.9 °F 14.0 °F 64% 30.30 in 10.0 mi WNW 16.1 mph - N/A   Clear
5:55 PM 26.6 °F 14.3 °F 14.0 °F 59% 30.30 in 10.0 mi NW 16.1 mph - N/A   Clear
6:15 PM 24.8 °F 14.0 °F 14.0 °F 64% 30.30 in 10.0 mi NW 11.5 mph - N/A   Clear
6:35 PM 24.8 °F 14.6 °F 14.0 °F 64% 30.31 in 10.0 mi NW 10.4 mph - N/A   Clear
6:55 PM 24.8 °F 13.4 °F 15.8 °F 69% 30.31 in 10.0 mi NW 12.7 mph - N/A   Clear
7:15 PM 24.8 °F 13.4 °F 15.8 °F 69% 30.31 in 10.0 mi NW 12.7 mph - N/A   Partly Cloudy
7:35 PM 24.8 °F 14.0 °F 14.0 °F 64% 30.30 in 10.0 mi NW 11.5 mph - N/A   Clear
7:55 PM 23.0 °F 12.4 °F 14.0 °F 68% 30.30 in 10.0 mi NW 10.4 mph - N/A   Clear
8:15 PM 21.2 °F 10.1 °F 14.0 °F 74% 30.30 in 10.0 mi NW 10.4 mph - N/A   Clear
8:35 PM 21.2 °F 10.9 °F 14.0 °F 74% 30.30 in 10.0 mi NW 9.2 mph - N/A   Clear
8:55 PM 21.2 °F 11.7 °F 14.0 °F 74% 30.30 in 10.0 mi NW 8.1 mph - N/A   Clear
9:15 PM 21.2 °F 12.6 °F 14.0 °F 74% 30.30 in 10.0 mi NW 6.9 mph - N/A   Clear
9:35 PM 19.4 °F 11.5 °F 12.2 °F 74% 30.29 in 10.0 mi West 5.8 mph - N/A   Clear
9:55 PM 19.4 °F 9.5 °F 15.8 °F 86% 30.29 in 10.0 mi WNW 8.1 mph - N/A   Clear
10:15 PM 19.4 °F 8.6 °F 14.0 °F 80% 30.30 in 10.0 mi WNW 9.2 mph - N/A   Clear
10:35 PM 17.6 °F 6.4 °F 12.2 °F 79% 30.30 in 10.0 mi West 9.2 mph - N/A   Clear
10:55 PM 17.6 °F 7.3 °F 12.2 °F 79% 30.30 in 10.0 mi WNW 8.1 mph - N/A   Clear
11:15 PM 17.6 °F 9.3 °F 12.2 °F 79% 30.30 in 10.0 mi WNW 5.8 mph - N/A   Clear
11:35 PM 15.8 °F 6.1 °F 10.4 °F 79% 30.30 in 10.0 mi West 6.9 mph - N/A   Clear
11:55 PM 15.8 °F 5.1 °F 12.2 °F 86% 30.30 in 10.0 mi West 8.1 mph - N/A   Clear